Regional Weather Roundup
Issued by NWS

Home | Current Version | Previous Version | Text Only | Print | Product List | Glossary Off
Versions: 1 2 3 4 5 6 7 8 9 10 11 12 13 14 15 16 17 18 19 20 21 22 23 24 25 26 27 28 29 30 31 32 33 34 35 36 37 38 39 40 41 42 43 44 45 46 47 48 49 50

295
ASUS44 KMEG 180300
RWRTN
TENNESSEE HOURLY STATE WEATHER ROUNDUP
NATIONAL WEATHER SERVICE MEMPHIS TN
900 PM CST WED JAN 17 2018

TNZ002-004-019-021-049-052-054-088>092-180400-
WEST TENNESSEE

CITY           SKY/WX    TMP DP  RH WIND       PRES   REMARKS
MEMPHIS INTL   FAIR      15   9  76 CALM      30.62F
NWS MEMPHIS      N/A     13 N/A N/A MISG        N/A
JACKSON        FAIR       6   3  87 CALM      30.62F
DYERSBURG      FAIR       5   0  79 CALM      30.63S
$$

TNZ008-025-027-028-033-062-065-066-180400-
NORTH MIDDLE TENNESSEE

CITY           SKY/WX    TMP DP  RH WIND       PRES   REMARKS
NASHVILLE      FAIR      15   6  67 CALM      30.59S
CLARKSVILLE    FAIR      10   5  80 CALM      30.59S
SMYRNA         FAIR       9   6  88 CALM      30.60F
CROSSVILLE     CLOUDY    11   6  81 N8        30.44F WCI  -1
$$

TNZ061-075-076-078-094-096-097-180400-
SOUTH MIDDLE TENNESSEE

CITY           SKY/WX    TMP DP  RH WIND       PRES   REMARKS
WINCHESTER     CLEAR     10   7  85 CALM      30.53S
$$

TNZ017-018-042-046-047-180400-
NORTHEAST TENNESSEE

CITY           SKY/WX    TMP DP  RH WIND       PRES   REMARKS
TRI CITIES     FAIR      12   4  70 N7        30.45R WCI   1
$$

TNZ012-013-036-069-073-074-180400-
CENTRAL EAST TENNESSEE

CITY           SKY/WX    TMP DP  RH WIND       PRES   REMARKS
KNOXVILLE      FAIR      12   5  73 E5        30.51F WCI   4
OAK RIDGE      FAIR      10   7  87 CALM      30.53F
$$

TNZ083-085-099-180400-
SOUTHEAST TENNESSEE

CITY           SKY/WX    TMP DP  RH WIND       PRES   REMARKS
CHATTANOOGA    FAIR      16   8  71 N10       30.53F WCI   4
$$

SKY/WX REPORTED AS FAIR MEANS FEW OR NO CLOUDS BELOW
12 THOUSAND FEET.





USA.gov is the U.S. government's official web portal to all federal, state and local government web resources and services.